Location: Sihaung
(22.8641°N, 94.0549°E)
Time: 12:17:51
(UTC+00:00)

Okean O Rocket - Pass Details

Date: 03 March 2021
Orbit: 623 x 643 km, 98.2° (Epoch: 16 April)

Event Time Altitude Azimuth Distance (km) Brightness Sun altitude
Rises 12:08:20 0° 184° (S) 2,896 5.1 -5.5°
Reaches altitude 10° 12:10:39 10° 192° (SSW) 1,990 4.4 -6.0°
Maximum altitude 12:14:39 37° 260° (W) 965 3.4 -6.9°
Drops below altitude 10° 12:18:41 10° 328° (NNW) 1,992 4.6 -7.8°
Sets 12:21:00 0° 337° (NNW) 2,901 5.3 -8.4°
